Nasa Shuttle, FL

1:18 AM EDT on July 27, 2017 (GMT -0400)
Nasa Shuttle

Weather History for KTTS - August, 2013

Change the Weather History Date:

Friday, August 23, 2013

  Actual Average Record
Temperature  
Mean Temperature 80 °F -  
Max Temperature 88 °F 86 °F 94 °F (2014)
Min Temperature 74 °F 71 °F 71 °F (1999)
Cooling Degree Days 16    
Growing Degree Days 30 (Base 50)    
Moisture  
Dew Point 77 °F    
Average Humidity 85    
Maximum Humidity 100    
Minimum Humidity 70    
Precipitation  
Precipitation 0.00 in - - ()
Sea Level Pressure  
Sea Level Pressure 30.03 in    
Wind  
Wind Speed 4 mph (East)    
Max Wind Speed 10 mph    
Max Gust Speed -    
Visibility 10 miles    
Events Rain , Thunderstorm    
Averages and records for this station are not official NWS values.
T = Trace of Precipitation, MM = Missing Value Source: NWS Daily Summary

Daily Weather History Graph

Daily Weather History Graph

Search for Another Location

Airport or City:

Trip Planner

Search our weather history database for the weather conditions in past years. The results will help you decide how hot, cold, wet, or windy it might be!

Date:

Astronomy

Aug. 23, 2013 Rise Set
Actual Time 6:56 AM EDT 7:53 PM EDT
Civil Twilight 6:32 AM EDT 8:18 PM EDT
Nautical Twilight 6:03 AM EDT 8:46 PM EDT
Astronomical Twilight 5:33 AM EDT 9:16 PM EDT
Moon 9:33 PM EDT (8/23) 9:30 AM EDT (8/23)
Length of Visible Light 13h 46m
Length of Day
12h 57m
Waning Gibbous, 91% of the Moon is Illuminated
Aug 23
Waning Gibbous
Aug 28
Last Quarter
Sep 5
New
Sep 12
First Quarter
Sep 19
Full

Hourly Weather History & Observations

Time (EDT) Temp. Heat Index Dew Point Humidity Pressure Visibility Wind Dir Wind Speed Gust Speed Precip Events Conditions
12:58 AM 79.2 °F - 78.3 °F 97% 30.04 in 10.0 mi SE 3.5 mph - N/A   Mostly Cloudy
1:58 AM 78.4 °F - 77.5 °F 97% 30.03 in 10.0 mi SE 2.3 mph - N/A   Partly Cloudy
2:58 AM 77.2 °F - 76.8 °F 99% 30.01 in 10.0 mi Calm Calm - N/A   Clear
3:58 AM 74.7 °F - 74.3 °F 99% 29.99 in 10.0 mi East 2.3 mph - N/A   Clear
4:58 AM 75.0 °F - 75.0 °F 100% 29.98 in 10.0 mi Calm Calm - N/A   Overcast
5:58 AM 74.8 °F - 74.8 °F 100% 30.00 in 10.0 mi ENE 1.2 mph - N/A   Overcast
6:58 AM 75.0 °F - 75.0 °F 100% 30.01 in 10.0 mi NNE 3.5 mph - N/A   Clear
7:58 AM 77.0 °F - 76.6 °F 99% 30.02 in 10.0 mi Calm Calm - N/A   Partly Cloudy
8:58 AM 84.6 °F 97.7 °F 79.5 °F 85% 30.03 in 10.0 mi ENE 5.8 mph - N/A   Scattered Clouds
9:23 AM 86.0 °F 96.9 °F 77.0 °F 74% 30.02 in 10.0 mi ENE 4.6 mph - N/A   Mostly Cloudy
9:58 AM 86.7 °F 98.8 °F 77.4 °F 74% 30.04 in 10.0 mi East 8.1 mph - N/A   Overcast
10:33 AM 87.8 °F 99.7 °F 77.0 °F 70% 30.03 in 10.0 mi ENE 8.1 mph - N/A   Mostly Cloudy
10:43 AM 87.8 °F 99.7 °F 77.0 °F 70% 30.04 in 10.0 mi East 6.9 mph - N/A   Mostly Cloudy
10:58 AM 87.3 °F 99.3 °F 77.4 °F 72% 30.05 in 10.0 mi East 8.1 mph - N/A   Mostly Cloudy
11:18 AM 87.8 °F 99.7 °F 77.0 °F 70% 30.04 in 10.0 mi ESE 8.1 mph - N/A   Mostly Cloudy
11:43 AM 86.0 °F 95.1 °F 75.2 °F 70% 30.04 in 10.0 mi Variable 4.6 mph - N/A   Mostly Cloudy
11:45 AM 86.0 °F 95.1 °F 75.2 °F 70% 30.04 in 10.0 mi Variable 4.6 mph - N/A Thunderstorm Thunderstorm
11:58 AM 85.3 °F 94.6 °F 75.9 °F 73% 30.05 in 10.0 mi Variable 4.6 mph - N/A Thunderstorm Thunderstorm
12:00 PM 86.0 °F 96.9 °F 77.0 °F 74% 30.04 in 10.0 mi West 4.6 mph - N/A Thunderstorm Mostly Cloudy
12:25 PM 84.2 °F 94.1 °F 77.0 °F 79% 30.04 in 10.0 mi ESE 9.2 mph - N/A   Mostly Cloudy
12:35 PM 84.2 °F 94.1 °F 77.0 °F 79% 30.03 in 10.0 mi ESE 8.1 mph - N/A   Light Drizzle
12:49 PM 84.2 °F 94.1 °F 77.0 °F 79% 30.03 in 10.0 mi ESE 8.1 mph - N/A   Partly Cloudy
12:58 PM 85.1 °F 96.2 °F 77.4 °F 78% 30.04 in 10.0 mi ESE 6.9 mph - 0.00 in   Mostly Cloudy
1:58 PM 84.4 °F 92.7 °F 75.4 °F 74% 30.03 in 10.0 mi ESE 9.2 mph - N/A   Scattered Clouds
2:58 PM 86.2 °F 96.0 °F 75.9 °F 71% 30.00 in 10.0 mi ESE 10.4 mph - N/A   Scattered Clouds
3:58 PM 84.4 °F 92.0 °F 74.3 °F 72% 30.01 in 10.0 mi ESE 10.4 mph - N/A   Scattered Clouds
4:58 PM 84.4 °F 92.7 °F 75.4 °F 74% 30.01 in 10.0 mi SE 9.2 mph - N/A   Clear
5:58 PM 82.8 °F 90.7 °F 75.9 °F 80% 30.02 in 10.0 mi SE 6.9 mph - N/A   Partly Cloudy
6:58 PM 81.7 °F 89.5 °F 77.2 °F 86% 30.02 in 10.0 mi East 3.5 mph - N/A   Mostly Cloudy
7:58 PM 79.5 °F - 77.7 °F 94% 30.03 in 10.0 mi East 4.6 mph - N/A   Scattered Clouds
8:22 PM 78.8 °F - 77.0 °F 94% 30.02 in 10.0 mi East 3.5 mph - N/A Rain Light Rain
8:36 PM 78.8 °F - 77.0 °F 94% 30.02 in 10.0 mi East 3.5 mph - N/A   Partly Cloudy
8:40 PM 78.8 °F - 77.0 °F 94% 30.02 in 10.0 mi ENE 3.5 mph - N/A Rain Light Rain
8:49 PM 78.8 °F - 77.0 °F 94% 30.03 in 10.0 mi ENE 3.5 mph - N/A   Mostly Cloudy
8:58 PM 78.4 °F - 77.2 °F 96% 30.04 in 10.0 mi ENE 3.5 mph - 0.00 in   Mostly Cloudy
9:58 PM 78.3 °F - 77.5 °F 98% 30.04 in 10.0 mi ESE 5.8 mph - N/A   Partly Cloudy
10:58 PM 79.5 °F - 77.2 °F 93% 30.04 in 10.0 mi SE 2.3 mph - N/A   Overcast
11:58 PM 78.8 °F - 77.5 °F 96% 30.03 in 10.0 mi SE 4.6 mph - N/A   Overcast